Year,Month,Day,Hour,Minute,Value (Times are PST for temperature in C)
2011,09,03,00,00,10.60
2011,09,03,00,01,10.60
2011,09,03,00,02,10.60
2011,09,03,00,03,10.60
2011,09,03,00,04,10.60
2011,09,03,00,05,10.60
2011,09,03,00,06,10.60
2011,09,03,00,07,10.60
2011,09,03,00,08,10.60
2011,09,03,00,09,10.50
2011,09,03,00,10,10.50
2011,09,03,00,11,10.50
2011,09,03,00,12,10.50
2011,09,03,00,13,10.50
2011,09,03,00,14,10.50
2011,09,03,00,15,10.50
2011,09,03,00,16,10.40
2011,09,03,00,17,10.40
2011,09,03,00,18,10.40
2011,09,03,00,19,10.40
2011,09,03,00,20,10.40
2011,09,03,00,21,10.40
2011,09,03,00,22,10.40
2011,09,03,00,23,10.40
2011,09,03,00,24,10.40
2011,09,03,00,25,10.40
2011,09,03,00,26,10.40
2011,09,03,00,27,10.40
2011,09,03,00,28,10.40
2011,09,03,00,29,10.40
2011,09,03,00,30,10.40
2011,09,03,00,31,10.40
2011,09,03,00,32,10.30
2011,09,03,00,33,10.30
2011,09,03,00,34,10.30
2011,09,03,00,35,10.30
2011,09,03,00,36,10.30
2011,09,03,00,37,10.30
2011,09,03,00,38,10.30
2011,09,03,00,39,10.30
2011,09,03,00,40,10.30
2011,09,03,00,41,10.30
2011,09,03,00,42,10.30
2011,09,03,00,43,10.30
2011,09,03,00,44,10.30
2011,09,03,00,45,10.30
2011,09,03,00,46,10.30
2011,09,03,00,47,10.30
2011,09,03,00,48,10.30
2011,09,03,00,49,10.30
2011,09,03,00,50,10.30
2011,09,03,00,51,10.30
2011,09,03,00,52,10.30
2011,09,03,00,53,10.30
2011,09,03,00,54,10.30
2011,09,03,00,55,10.20
2011,09,03,00,56,10.20
2011,09,03,00,57,10.20
2011,09,03,00,58,10.20
2011,09,03,00,59,10.20
2011,09,03,01,00,10.20
2011,09,03,01,01,10.20
2011,09,03,01,02,10.20
2011,09,03,01,03,10.20
2011,09,03,01,04,10.20
2011,09,03,01,05,10.20
2011,09,03,01,06,10.20
2011,09,03,01,07,10.10
2011,09,03,01,08,10.10
2011,09,03,01,09,10.10
2011,09,03,01,10,10.10
2011,09,03,01,11,10.10
2011,09,03,01,12,10.10
2011,09,03,01,13,10.10
2011,09,03,01,14,10.10
2011,09,03,01,15,10.10
2011,09,03,01,16,10.10
2011,09,03,01,17,10.10
2011,09,03,01,18,10.10
2011,09,03,01,19,10.10
2011,09,03,01,20,10.10
2011,09,03,01,21,10.10
2011,09,03,01,22,10.00
2011,09,03,01,23,10.00
2011,09,03,01,24,10.00
2011,09,03,01,25,10.00
2011,09,03,01,26,10.00
2011,09,03,01,27,10.00
2011,09,03,01,28,10.00
2011,09,03,01,29,9.90
2011,09,03,01,30,9.90
2011,09,03,01,31,10.00
2011,09,03,01,32,9.90
2011,09,03,01,33,9.90
2011,09,03,01,34,9.90
2011,09,03,01,35,9.90
2011,09,03,01,36,9.90
2011,09,03,01,37,9.90
2011,09,03,01,38,9.90
2011,09,03,01,39,9.80
2011,09,03,01,40,9.80
2011,09,03,01,41,9.80
2011,09,03,01,42,9.80
2011,09,03,01,43,9.80
2011,09,03,01,44,9.80
2011,09,03,01,45,9.80
2011,09,03,01,46,9.80
2011,09,03,01,47,9.80
2011,09,03,01,48,9.80
2011,09,03,01,49,9.80
2011,09,03,01,50,9.70
2011,09,03,01,51,9.70
2011,09,03,01,52,9.70
2011,09,03,01,53,9.70
2011,09,03,01,54,9.70
2011,09,03,01,55,9.70
2011,09,03,01,56,9.70
2011,09,03,01,57,9.70
2011,09,03,01,58,9.70
2011,09,03,01,59,9.70
2011,09,03,02,00,9.70
2011,09,03,02,01,9.60
2011,09,03,02,02,9.60
2011,09,03,02,03,9.60
2011,09,03,02,04,9.60
2011,09,03,02,05,9.60
2011,09,03,02,06,9.60
2011,09,03,02,07,9.60
2011,09,03,02,08,9.60
2011,09,03,02,09,9.60
2011,09,03,02,10,9.60
2011,09,03,02,11,9.60
2011,09,03,02,12,9.60
2011,09,03,02,13,9.60
2011,09,03,02,14,9.50
2011,09,03,02,15,9.50
2011,09,03,02,16,9.50
2011,09,03,02,17,9.50
2011,09,03,02,18,9.50
2011,09,03,02,19,9.40
2011,09,03,02,20,9.40
2011,09,03,02,21,9.40
2011,09,03,02,22,9.40
2011,09,03,02,23,9.40
2011,09,03,02,24,9.40
2011,09,03,02,25,9.40
2011,09,03,02,26,9.40
2011,09,03,02,27,9.40
2011,09,03,02,28,9.40
2011,09,03,02,29,9.40
2011,09,03,02,30,9.40
2011,09,03,02,31,9.30
2011,09,03,02,32,9.30
2011,09,03,02,33,9.30
2011,09,03,02,34,9.30
2011,09,03,02,35,9.30
2011,09,03,02,36,9.30
2011,09,03,02,37,9.30
2011,09,03,02,38,9.30
2011,09,03,02,39,9.30
2011,09,03,02,40,9.30
2011,09,03,02,41,9.30
2011,09,03,02,42,9.30
2011,09,03,02,43,9.30
2011,09,03,02,44,9.20
2011,09,03,02,45,9.20
2011,09,03,02,46,9.20
2011,09,03,02,47,9.20
2011,09,03,02,48,9.20
2011,09,03,02,49,9.20
2011,09,03,02,50,9.20
2011,09,03,02,51,9.20
2011,09,03,02,52,9.20
2011,09,03,02,53,9.20
2011,09,03,02,54,9.20
2011,09,03,02,55,9.20
2011,09,03,02,56,9.20
2011,09,03,02,57,9.20
2011,09,03,02,58,9.20
2011,09,03,02,59,9.10
2011,09,03,03,00,9.10
2011,09,03,03,01,9.10
2011,09,03,03,02,9.10
2011,09,03,03,03,9.10
2011,09,03,03,04,9.10
2011,09,03,03,05,9.10
2011,09,03,03,06,9.10
2011,09,03,03,07,9.10
2011,09,03,03,08,9.10
2011,09,03,03,09,9.10
2011,09,03,03,10,9.10
2011,09,03,03,11,9.10
2011,09,03,03,12,9.10
2011,09,03,03,13,9.10
2011,09,03,03,14,9.10
2011,09,03,03,15,9.10
2011,09,03,03,16,9.10
2011,09,03,03,17,9.10
2011,09,03,03,18,9.10
2011,09,03,03,19,9.00
2011,09,03,03,20,9.00
2011,09,03,03,21,9.00
2011,09,03,03,22,9.00
2011,09,03,03,23,9.00
2011,09,03,03,24,9.00
2011,09,03,03,25,9.00
2011,09,03,03,26,9.00
2011,09,03,03,27,9.00
2011,09,03,03,28,9.00
2011,09,03,03,29,8.90
2011,09,03,03,30,8.90
2011,09,03,03,31,8.90
2011,09,03,03,32,8.90
2011,09,03,03,33,8.90
2011,09,03,03,34,8.90
2011,09,03,03,35,8.90
2011,09,03,03,36,8.90
2011,09,03,03,37,8.90
2011,09,03,03,38,8.90
2011,09,03,03,39,8.90
2011,09,03,03,40,8.90
2011,09,03,03,41,8.80
2011,09,03,03,42,8.80
2011,09,03,03,43,8.80
2011,09,03,03,44,8.80
2011,09,03,03,45,8.80
2011,09,03,03,46,8.80
2011,09,03,03,47,8.80
2011,09,03,03,48,8.80
2011,09,03,03,49,8.80
2011,09,03,03,50,8.80
2011,09,03,03,51,8.80
2011,09,03,03,52,8.80
2011,09,03,03,53,8.80
2011,09,03,03,54,8.80
2011,09,03,03,55,8.80
2011,09,03,03,56,8.80
2011,09,03,03,57,8.80
2011,09,03,03,58,8.80
2011,09,03,03,59,8.80
2011,09,03,04,00,8.80
2011,09,03,04,01,8.80
2011,09,03,04,02,8.80
2011,09,03,04,03,8.70
2011,09,03,04,04,8.70
2011,09,03,04,05,8.70
2011,09,03,04,06,8.70
2011,09,03,04,07,8.70
2011,09,03,04,08,8.70
2011,09,03,04,09,8.70
2011,09,03,04,10,8.70
2011,09,03,04,11,8.70
2011,09,03,04,12,8.70
2011,09,03,04,13,8.70
2011,09,03,04,14,8.70
2011,09,03,04,15,8.70
2011,09,03,04,16,8.70
2011,09,03,04,17,8.70
2011,09,03,04,18,8.80
2011,09,03,04,19,8.70
2011,09,03,04,20,8.80
2011,09,03,04,21,8.70
2011,09,03,04,22,8.70
2011,09,03,04,23,8.70
2011,09,03,04,24,8.80
2011,09,03,04,25,8.80
2011,09,03,04,26,8.70
2011,09,03,04,27,8.70
2011,09,03,04,28,8.70
2011,09,03,04,29,8.70
2011,09,03,04,30,8.70
2011,09,03,04,31,8.70
2011,09,03,04,32,8.70
2011,09,03,04,33,8.70
2011,09,03,04,34,8.70
2011,09,03,04,35,8.70
2011,09,03,04,36,8.70
2011,09,03,04,37,8.70
2011,09,03,04,38,8.70
2011,09,03,04,39,8.70
2011,09,03,04,40,8.70
2011,09,03,04,41,8.70
2011,09,03,04,42,8.70
2011,09,03,04,43,8.70
2011,09,03,04,44,8.70
2011,09,03,04,45,8.70
2011,09,03,04,46,8.70
2011,09,03,04,47,8.70
2011,09,03,04,48,8.70
2011,09,03,04,49,8.70
2011,09,03,04,50,8.70
2011,09,03,04,51,8.70
2011,09,03,04,52,8.70
2011,09,03,04,53,8.70
2011,09,03,04,54,8.60
2011,09,03,04,55,8.70
2011,09,03,04,56,8.70
2011,09,03,04,57,8.70
2011,09,03,04,58,8.70
2011,09,03,04,59,8.70
2011,09,03,05,00,8.70
2011,09,03,05,01,8.70
2011,09,03,05,02,8.70
2011,09,03,05,03,8.70
2011,09,03,05,04,8.70
2011,09,03,05,05,8.70
2011,09,03,05,06,8.80
2011,09,03,05,07,8.80
2011,09,03,05,08,8.80
2011,09,03,05,09,8.90
2011,09,03,05,10,8.90
2011,09,03,05,11,9.00
2011,09,03,05,12,9.00
2011,09,03,05,13,9.00
2011,09,03,05,14,9.10
2011,09,03,05,15,9.10
2011,09,03,05,16,9.10
2011,09,03,05,17,9.00
2011,09,03,05,18,9.10
2011,09,03,05,19,9.10
2011,09,03,05,20,9.10
2011,09,03,05,21,9.10
2011,09,03,05,22,9.10
2011,09,03,05,23,9.10
2011,09,03,05,24,9.10
2011,09,03,05,25,9.10
2011,09,03,05,26,9.10
2011,09,03,05,27,9.20
2011,09,03,05,28,9.20
2011,09,03,05,29,9.20
2011,09,03,05,30,9.20
2011,09,03,05,31,9.20
2011,09,03,05,32,9.30
2011,09,03,05,33,9.30
2011,09,03,05,34,9.30
2011,09,03,05,35,9.30
2011,09,03,05,36,9.30
2011,09,03,05,37,9.40
2011,09,03,05,38,9.40
2011,09,03,05,39,9.40
2011,09,03,05,40,9.50
2011,09,03,05,41,9.50
2011,09,03,05,42,9.60
2011,09,03,05,43,9.60
2011,09,03,05,44,9.60
2011,09,03,05,45,9.60
2011,09,03,05,46,9.60
2011,09,03,05,47,9.70
2011,09,03,05,48,9.70
2011,09,03,05,49,9.70
2011,09,03,05,50,9.70
2011,09,03,05,51,9.70
2011,09,03,05,52,9.70
2011,09,03,05,53,9.80
2011,09,03,05,54,9.80
2011,09,03,05,55,9.80
2011,09,03,05,56,9.80
2011,09,03,05,57,9.80
2011,09,03,05,58,9.80
2011,09,03,05,59,9.90
2011,09,03,06,00,9.90
2011,09,03,06,01,9.90
2011,09,03,06,02,9.90
2011,09,03,06,03,9.90
2011,09,03,06,04,9.90
2011,09,03,06,05,9.90
2011,09,03,06,06,9.90
2011,09,03,06,07,9.90
2011,09,03,06,08,9.90
2011,09,03,06,09,9.90
2011,09,03,06,10,9.90
2011,09,03,06,11,9.90
2011,09,03,06,12,9.90
2011,09,03,06,13,9.90
2011,09,03,06,14,9.90
2011,09,03,06,15,9.90
2011,09,03,06,16,9.90
2011,09,03,06,17,9.90
2011,09,03,06,18,9.90
2011,09,03,06,19,9.90
2011,09,03,06,20,9.90
2011,09,03,06,21,9.90
2011,09,03,06,22,9.90
2011,09,03,06,23,9.90
2011,09,03,06,24,9.90
2011,09,03,06,25,9.90
2011,09,03,06,26,10.00
2011,09,03,06,27,10.00
2011,09,03,06,28,10.10
2011,09,03,06,29,10.10
2011,09,03,06,30,10.20
2011,09,03,06,31,10.20
2011,09,03,06,32,10.30
2011,09,03,06,33,10.30
2011,09,03,06,34,10.40
2011,09,03,06,35,10.50
2011,09,03,06,36,10.60
2011,09,03,06,37,10.70
2011,09,03,06,38,10.80
2011,09,03,06,39,11.00
2011,09,03,06,40,11.10
2011,09,03,06,41,11.20
2011,09,03,06,42,11.40
2011,09,03,06,43,11.50
2011,09,03,06,44,11.60
2011,09,03,06,45,11.70
2011,09,03,06,46,11.80
2011,09,03,06,47,11.90
2011,09,03,06,48,12.00
2011,09,03,06,49,12.10
2011,09,03,06,50,12.20
2011,09,03,06,51,12.30
2011,09,03,06,52,12.30
2011,09,03,06,53,12.40
2011,09,03,06,54,12.40
2011,09,03,06,55,12.40
2011,09,03,06,56,12.50
2011,09,03,06,57,12.50
2011,09,03,06,58,12.50
2011,09,03,06,59,12.60
2011,09,03,07,00,12.60
2011,09,03,07,01,12.60
2011,09,03,07,02,12.60
2011,09,03,07,03,12.70
2011,09,03,07,04,12.70
2011,09,03,07,05,12.70
2011,09,03,07,06,12.70
2011,09,03,07,07,12.60
2011,09,03,07,08,12.60
2011,09,03,07,09,12.60
2011,09,03,07,10,12.60
2011,09,03,07,11,12.60
2011,09,03,07,12,12.60
2011,09,03,07,13,12.60
2011,09,03,07,14,12.60
2011,09,03,07,15,12.60
2011,09,03,07,16,12.60
2011,09,03,07,17,12.60
2011,09,03,07,18,12.70
2011,09,03,07,19,12.70
2011,09,03,07,20,12.70
2011,09,03,07,21,12.70
2011,09,03,07,22,12.70
2011,09,03,07,23,12.70
2011,09,03,07,24,12.70
2011,09,03,07,25,12.80
2011,09,03,07,26,12.80
2011,09,03,07,27,12.80
2011,09,03,07,28,12.80
2011,09,03,07,29,12.80
2011,09,03,07,30,12.80
2011,09,03,07,31,12.80
2011,09,03,07,32,12.80
2011,09,03,07,33,12.80
2011,09,03,07,34,12.80
2011,09,03,07,35,12.80
2011,09,03,07,36,12.80
2011,09,03,07,37,12.80
2011,09,03,07,38,12.80
2011,09,03,07,39,12.80
2011,09,03,07,40,12.90
2011,09,03,07,41,12.90
2011,09,03,07,42,12.90
2011,09,03,07,43,12.90
2011,09,03,07,44,12.90
2011,09,03,07,45,12.90
2011,09,03,07,46,12.90
2011,09,03,07,47,13.00
2011,09,03,07,48,13.00
2011,09,03,07,49,13.00
2011,09,03,07,50,13.00
2011,09,03,07,51,13.10
2011,09,03,07,52,13.10
2011,09,03,07,53,13.10
2011,09,03,07,54,13.10
2011,09,03,07,55,13.10
2011,09,03,07,56,13.20
2011,09,03,07,57,13.20
2011,09,03,07,58,13.20
2011,09,03,07,59,13.30
2011,09,03,08,00,13.30
2011,09,03,08,01,13.30
2011,09,03,08,02,13.40
2011,09,03,08,03,13.40
2011,09,03,08,04,13.40
2011,09,03,08,05,13.50
2011,09,03,08,06,13.60
2011,09,03,08,07,13.60
2011,09,03,08,08,13.60
2011,09,03,08,09,13.70
2011,09,03,08,10,13.70
2011,09,03,08,11,13.70
2011,09,03,08,12,13.70
2011,09,03,08,13,13.70
2011,09,03,08,14,13.80
2011,09,03,08,15,13.80
2011,09,03,08,16,13.80
2011,09,03,08,17,13.80
2011,09,03,08,18,13.80
2011,09,03,08,19,13.80
2011,09,03,08,20,13.80
2011,09,03,08,21,13.90
2011,09,03,08,22,13.90
2011,09,03,08,23,13.90
2011,09,03,08,24,13.90
2011,09,03,08,25,14.00
2011,09,03,08,26,14.00
2011,09,03,08,27,14.00
2011,09,03,08,28,14.00
2011,09,03,08,29,14.10
2011,09,03,08,30,14.10
2011,09,03,08,31,14.10
2011,09,03,08,32,14.20
2011,09,03,08,33,14.20
2011,09,03,08,34,14.20
2011,09,03,08,35,14.30
2011,09,03,08,36,14.30
2011,09,03,08,37,14.30
2011,09,03,08,38,14.40
2011,09,03,08,39,14.40
2011,09,03,08,40,14.40
2011,09,03,08,41,14.50
2011,09,03,08,42,14.50
2011,09,03,08,43,14.50
2011,09,03,08,44,14.60
2011,09,03,08,45,14.60
2011,09,03,08,46,14.60
2011,09,03,08,47,14.70
2011,09,03,08,48,14.70
2011,09,03,08,49,14.70
2011,09,03,08,50,14.70
2011,09,03,08,51,14.80
2011,09,03,08,52,14.80
2011,09,03,08,53,14.80
2011,09,03,08,54,14.80
2011,09,03,08,55,14.80
2011,09,03,08,56,14.80
2011,09,03,08,57,14.90
2011,09,03,08,58,14.90
2011,09,03,08,59,14.90
2011,09,03,09,00,14.90
2011,09,03,09,01,15.00
2011,09,03,09,02,15.00
2011,09,03,09,03,15.00
2011,09,03,09,04,15.00
2011,09,03,09,05,15.10
2011,09,03,09,06,15.10
2011,09,03,09,07,15.10
2011,09,03,09,08,15.10
2011,09,03,09,09,15.10
2011,09,03,09,10,15.20
2011,09,03,09,11,15.20
2011,09,03,09,12,15.20
2011,09,03,09,13,15.20
2011,09,03,09,14,15.20
2011,09,03,09,15,15.20
2011,09,03,09,16,15.30
2011,09,03,09,17,15.30
2011,09,03,09,18,15.30
2011,09,03,09,19,15.30
2011,09,03,09,20,15.40
2011,09,03,09,21,15.40
2011,09,03,09,22,15.40
2011,09,03,09,23,15.40
2011,09,03,09,24,15.50
2011,09,03,09,25,15.50
2011,09,03,09,26,15.50
2011,09,03,09,27,15.60
2011,09,03,09,28,15.60
2011,09,03,09,29,15.60
2011,09,03,09,30,15.60
2011,09,03,09,31,15.60
2011,09,03,09,32,15.70
2011,09,03,09,33,15.70
2011,09,03,09,34,15.70
2011,09,03,09,35,15.70
2011,09,03,09,36,15.80
2011,09,03,09,37,15.80
2011,09,03,09,38,15.80
2011,09,03,09,39,15.80
2011,09,03,09,40,15.80
2011,09,03,09,41,15.80
2011,09,03,09,42,15.80
2011,09,03,09,43,15.90
2011,09,03,09,44,15.90
2011,09,03,09,45,15.90
2011,09,03,09,46,15.90
2011,09,03,09,47,15.90
2011,09,03,09,48,16.00
2011,09,03,09,49,16.00
2011,09,03,09,50,16.10
2011,09,03,09,51,16.10
2011,09,03,09,52,16.10
2011,09,03,09,53,16.10
2011,09,03,09,54,16.10
2011,09,03,09,55,16.20
2011,09,03,09,56,16.20
2011,09,03,09,57,16.20
2011,09,03,09,58,16.20
2011,09,03,09,59,16.20
2011,09,03,10,00,16.20
2011,09,03,10,01,16.20
2011,09,03,10,02,16.20
2011,09,03,10,03,16.20
2011,09,03,10,04,16.20
2011,09,03,10,05,16.30
2011,09,03,10,06,16.30
2011,09,03,10,07,16.40
2011,09,03,10,08,16.40
2011,09,03,10,09,16.50
2011,09,03,10,10,16.60
2011,09,03,10,11,16.60
2011,09,03,10,12,16.60
2011,09,03,10,13,16.70
2011,09,03,10,14,16.70
2011,09,03,10,15,16.70
2011,09,03,10,16,16.70
2011,09,03,10,17,16.70
2011,09,03,10,18,16.70
2011,09,03,10,19,16.70
2011,09,03,10,20,16.70
2011,09,03,10,21,16.70
2011,09,03,10,22,16.70
2011,09,03,10,23,16.70
2011,09,03,10,24,16.80
2011,09,03,10,25,16.80
2011,09,03,10,26,16.80
2011,09,03,10,27,16.80
2011,09,03,10,28,16.90
2011,09,03,10,29,16.90
2011,09,03,10,30,16.90
2011,09,03,10,31,17.00
2011,09,03,10,32,17.00
2011,09,03,10,33,17.00
2011,09,03,10,34,17.10
2011,09,03,10,35,17.10
2011,09,03,10,36,17.10
2011,09,03,10,37,17.10
2011,09,03,10,38,17.10
2011,09,03,10,39,17.20
2011,09,03,10,40,17.20
2011,09,03,10,41,17.30
2011,09,03,10,42,17.30
2011,09,03,10,43,17.30
2011,09,03,10,44,17.30
2011,09,03,10,45,17.30
2011,09,03,10,46,17.30
2011,09,03,10,47,17.30
2011,09,03,10,48,17.30
2011,09,03,10,49,17.30
2011,09,03,10,50,17.40
2011,09,03,10,51,17.40
2011,09,03,10,52,17.40
2011,09,03,10,53,17.40
2011,09,03,10,54,17.40
2011,09,03,10,55,17.40
2011,09,03,10,56,17.50
2011,09,03,10,57,17.50
2011,09,03,10,58,17.60
2011,09,03,10,59,17.60
2011,09,03,11,00,17.60
2011,09,03,11,01,17.60
2011,09,03,11,02,17.60
2011,09,03,11,03,17.60
2011,09,03,11,04,17.60
2011,09,03,11,05,17.60
2011,09,03,11,06,17.60
2011,09,03,11,07,17.60
2011,09,03,11,08,17.70
2011,09,03,11,09,17.70
2011,09,03,11,10,17.70
2011,09,03,11,11,17.70
2011,09,03,11,12,17.70
2011,09,03,11,13,17.70
2011,09,03,11,14,17.80
2011,09,03,11,15,17.90
2011,09,03,11,16,18.00
2011,09,03,11,17,18.00
2011,09,03,11,18,18.10
2011,09,03,11,19,18.20
2011,09,03,11,20,18.20
2011,09,03,11,21,18.20
2011,09,03,11,22,18.20
2011,09,03,11,23,18.20
2011,09,03,11,24,18.10
2011,09,03,11,25,18.10
2011,09,03,11,26,18.10
2011,09,03,11,27,18.10
2011,09,03,11,28,18.10
2011,09,03,11,29,18.10
2011,09,03,11,30,18.10
2011,09,03,11,31,18.00
2011,09,03,11,32,18.00
2011,09,03,11,33,18.00
2011,09,03,11,34,18.00
2011,09,03,11,35,18.00
2011,09,03,11,36,18.10
2011,09,03,11,37,18.10
2011,09,03,11,38,18.20
2011,09,03,11,39,18.20
2011,09,03,11,40,18.30
2011,09,03,11,41,18.30
2011,09,03,11,42,18.40
2011,09,03,11,43,18.40
2011,09,03,11,44,18.50
2011,09,03,11,45,18.60
2011,09,03,11,46,18.70
2011,09,03,11,47,18.70
2011,09,03,11,48,18.60
2011,09,03,11,49,18.60
2011,09,03,11,50,18.60
2011,09,03,11,51,18.50
2011,09,03,11,52,18.50
2011,09,03,11,53,18.40
2011,09,03,11,54,18.40
2011,09,03,11,55,18.40
2011,09,03,11,56,18.40
2011,09,03,11,57,18.50
2011,09,03,11,58,18.50
2011,09,03,11,59,18.50
2011,09,03,12,00,18.40
2011,09,03,12,01,18.40
2011,09,03,12,02,18.40
2011,09,03,12,03,18.50
2011,09,03,12,04,18.60
2011,09,03,12,05,18.60
2011,09,03,12,06,18.60
2011,09,03,12,07,18.60
2011,09,03,12,08,18.60
2011,09,03,12,09,18.60
2011,09,03,12,10,18.60
2011,09,03,12,11,18.60
2011,09,03,12,12,18.60
2011,09,03,12,13,18.60
2011,09,03,12,14,18.70
2011,09,03,12,15,18.70
2011,09,03,12,16,18.70
2011,09,03,12,17,18.80
2011,09,03,12,18,18.80
2011,09,03,12,19,18.80
2011,09,03,12,20,18.80
2011,09,03,12,21,18.80
2011,09,03,12,22,18.80
2011,09,03,12,23,18.80
2011,09,03,12,24,18.80
2011,09,03,12,25,18.80
2011,09,03,12,26,18.80
2011,09,03,12,27,18.80
2011,09,03,12,28,18.80
2011,09,03,12,29,18.90
2011,09,03,12,30,19.00
2011,09,03,12,31,19.00
2011,09,03,12,32,19.10
2011,09,03,12,33,19.10
2011,09,03,12,34,19.10
2011,09,03,12,35,19.10
2011,09,03,12,36,19.00
2011,09,03,12,37,19.00
2011,09,03,12,38,19.00
2011,09,03,12,39,19.00
2011,09,03,12,40,19.00
2011,09,03,12,41,19.00
2011,09,03,12,42,19.00
2011,09,03,12,43,19.00
2011,09,03,12,44,19.10
2011,09,03,12,45,19.10
2011,09,03,12,46,19.10
2011,09,03,12,47,19.10
2011,09,03,12,48,19.10
2011,09,03,12,49,19.10
2011,09,03,12,50,19.10
2011,09,03,12,51,19.10
2011,09,03,12,52,19.10
2011,09,03,12,53,19.00
2011,09,03,12,54,19.00
2011,09,03,12,55,19.10
2011,09,03,12,56,19.10
2011,09,03,12,57,19.20
2011,09,03,12,58,19.20
2011,09,03,12,59,19.20
2011,09,03,13,00,19.20
2011,09,03,13,01,19.30
2011,09,03,13,02,19.30
2011,09,03,13,03,19.40
2011,09,03,13,04,19.40
2011,09,03,13,05,19.50
2011,09,03,13,06,19.60
2011,09,03,13,07,19.60
2011,09,03,13,08,19.70
2011,09,03,13,09,19.70
2011,09,03,13,10,19.80
2011,09,03,13,11,19.80
2011,09,03,13,12,19.90
2011,09,03,13,13,20.00
2011,09,03,13,14,20.10
2011,09,03,13,15,20.20
2011,09,03,13,16,20.20
2011,09,03,13,17,20.20
2011,09,03,13,18,20.20
2011,09,03,13,19,20.20
2011,09,03,13,20,20.20
2011,09,03,13,21,20.20
2011,09,03,13,22,20.20
2011,09,03,13,23,20.20
2011,09,03,13,24,20.20
2011,09,03,13,25,20.20
2011,09,03,13,26,20.20
2011,09,03,13,27,20.10
2011,09,03,13,28,20.20
2011,09,03,13,29,20.20
2011,09,03,13,30,20.20
2011,09,03,13,31,20.20
2011,09,03,13,32,20.20
2011,09,03,13,33,20.20
2011,09,03,13,34,20.20
2011,09,03,13,35,20.20
2011,09,03,13,36,20.30
2011,09,03,13,37,20.40
2011,09,03,13,38,20.50
2011,09,03,13,39,20.60
2011,09,03,13,40,20.60
2011,09,03,13,41,20.70
2011,09,03,13,42,20.60
2011,09,03,13,43,20.60
2011,09,03,13,44,20.60
2011,09,03,13,45,20.60
2011,09,03,13,46,20.60
2011,09,03,13,47,20.60
2011,09,03,13,48,20.60
2011,09,03,13,49,20.60
2011,09,03,13,50,20.60
2011,09,03,13,51,20.60
2011,09,03,13,52,20.70
2011,09,03,13,53,20.80
2011,09,03,13,54,20.90
2011,09,03,13,55,21.00
2011,09,03,13,56,21.10
2011,09,03,13,57,21.10
2011,09,03,13,58,21.10
2011,09,03,13,59,21.00
2011,09,03,14,00,21.00
2011,09,03,14,01,21.00
2011,09,03,14,02,20.90
2011,09,03,14,03,20.90
2011,09,03,14,04,21.00
2011,09,03,14,05,21.00
2011,09,03,14,06,21.10
2011,09,03,14,07,21.20
2011,09,03,14,08,21.20
2011,09,03,14,09,21.20
2011,09,03,14,10,21.20
2011,09,03,14,11,21.30
2011,09,03,14,12,21.20
2011,09,03,14,13,21.20
2011,09,03,14,14,21.20
2011,09,03,14,15,21.20
2011,09,03,14,16,21.30
2011,09,03,14,17,21.30
2011,09,03,14,18,21.30
2011,09,03,14,19,21.30
2011,09,03,14,20,21.30
2011,09,03,14,21,21.40
2011,09,03,14,22,21.40
2011,09,03,14,23,21.40
2011,09,03,14,24,21.40
2011,09,03,14,25,21.40
2011,09,03,14,26,21.40
2011,09,03,14,27,21.40
2011,09,03,14,28,21.50
2011,09,03,14,29,21.50
2011,09,03,14,30,21.50
2011,09,03,14,31,21.50
2011,09,03,14,32,21.50
2011,09,03,14,33,21.50
2011,09,03,14,34,21.50
2011,09,03,14,35,21.50
2011,09,03,14,36,21.50
2011,09,03,14,37,21.50
2011,09,03,14,38,21.50
2011,09,03,14,39,21.50
2011,09,03,14,40,21.50
2011,09,03,14,41,21.50
2011,09,03,14,42,21.50
2011,09,03,14,43,21.50
2011,09,03,14,44,21.60
2011,09,03,14,45,21.60
2011,09,03,14,46,21.60
2011,09,03,14,47,21.70
2011,09,03,14,48,21.70
2011,09,03,14,49,21.70
2011,09,03,14,50,21.70
2011,09,03,14,51,21.70
2011,09,03,14,52,21.70
2011,09,03,14,53,21.70
2011,09,03,14,54,21.70
2011,09,03,14,55,21.70
2011,09,03,14,56,21.80
2011,09,03,14,57,21.70
2011,09,03,14,58,21.70
2011,09,03,14,59,21.80
2011,09,03,15,00,21.80
2011,09,03,15,01,21.80
2011,09,03,15,02,21.90
2011,09,03,15,03,21.90
2011,09,03,15,04,21.90
2011,09,03,15,05,21.90
2011,09,03,15,06,22.00
2011,09,03,15,07,22.00
2011,09,03,15,08,22.10
2011,09,03,15,09,22.00
2011,09,03,15,10,22.00
2011,09,03,15,11,21.90
2011,09,03,15,12,21.80
2011,09,03,15,13,21.80
2011,09,03,15,14,21.80
2011,09,03,15,15,21.80
2011,09,03,15,16,21.90
2011,09,03,15,17,21.90
2011,09,03,15,18,21.90
2011,09,03,15,19,21.80
2011,09,03,15,20,21.80
2011,09,03,15,21,21.80
2011,09,03,15,22,21.80
2011,09,03,15,23,21.70
2011,09,03,15,24,21.70
2011,09,03,15,25,21.70
2011,09,03,15,26,21.70
2011,09,03,15,27,21.70
2011,09,03,15,28,21.70
2011,09,03,15,29,21.70
2011,09,03,15,30,21.80
2011,09,03,15,31,21.80
2011,09,03,15,32,21.90
2011,09,03,15,33,21.90
2011,09,03,15,34,22.00
2011,09,03,15,35,22.00
2011,09,03,15,36,22.00
2011,09,03,15,37,22.00
2011,09,03,15,38,22.00
2011,09,03,15,39,21.90
2011,09,03,15,40,21.90
2011,09,03,15,41,21.80
2011,09,03,15,42,21.80
2011,09,03,15,43,21.70
2011,09,03,15,44,21.70
2011,09,03,15,45,21.80
2011,09,03,15,46,21.70
2011,09,03,15,47,21.70
2011,09,03,15,48,21.70
2011,09,03,15,49,21.70
2011,09,03,15,50,21.70
2011,09,03,15,51,21.70
2011,09,03,15,52,21.70
2011,09,03,15,53,21.60
2011,09,03,15,54,21.60
2011,09,03,15,55,21.60
2011,09,03,15,56,21.60
2011,09,03,15,57,21.70
2011,09,03,15,58,21.70
2011,09,03,15,59,21.80
2011,09,03,16,00,21.80
2011,09,03,16,01,21.80
2011,09,03,16,02,21.90
2011,09,03,16,03,21.90
2011,09,03,16,04,22.00
2011,09,03,16,05,22.10
2011,09,03,16,06,22.20
2011,09,03,16,07,22.30
2011,09,03,16,08,22.40
2011,09,03,16,09,22.40
2011,09,03,16,10,22.50
2011,09,03,16,11,22.60
2011,09,03,16,12,22.60
2011,09,03,16,13,22.70
2011,09,03,16,14,22.70
2011,09,03,16,15,22.80
2011,09,03,16,16,22.80
2011,09,03,16,17,22.80
2011,09,03,16,18,22.80
2011,09,03,16,19,22.80
2011,09,03,16,20,22.70
2011,09,03,16,21,22.70
2011,09,03,16,22,22.60
2011,09,03,16,23,22.60
2011,09,03,16,24,22.60
2011,09,03,16,25,22.50
2011,09,03,16,26,22.50
2011,09,03,16,27,22.50
2011,09,03,16,28,22.40
2011,09,03,16,29,22.50
2011,09,03,16,30,22.50
2011,09,03,16,31,22.50
2011,09,03,16,32,22.50
2011,09,03,16,33,22.50
2011,09,03,16,34,22.50
2011,09,03,16,35,22.50
2011,09,03,16,36,22.50
2011,09,03,16,37,22.50
2011,09,03,16,38,22.50
2011,09,03,16,39,22.50
2011,09,03,16,40,22.40
2011,09,03,16,41,22.40
2011,09,03,16,42,22.50
2011,09,03,16,43,22.50
2011,09,03,16,44,22.40
2011,09,03,16,45,22.40
2011,09,03,16,46,22.40
2011,09,03,16,47,22.40
2011,09,03,16,48,22.40
2011,09,03,16,49,22.50
2011,09,03,16,50,22.50
2011,09,03,16,51,22.50
2011,09,03,16,52,22.50
2011,09,03,16,53,22.60
2011,09,03,16,54,22.60
2011,09,03,16,55,22.60
2011,09,03,16,56,22.50
2011,09,03,16,57,22.40
2011,09,03,16,58,22.40
2011,09,03,16,59,22.40
2011,09,03,17,00,22.40
2011,09,03,17,01,22.40
2011,09,03,17,02,22.40
2011,09,03,17,03,22.50
2011,09,03,17,04,22.40
2011,09,03,17,05,22.40
2011,09,03,17,06,22.40
2011,09,03,17,07,22.40
2011,09,03,17,08,22.40
2011,09,03,17,09,22.40
2011,09,03,17,10,22.50
2011,09,03,17,11,22.50
2011,09,03,17,12,22.50
2011,09,03,17,13,22.40
2011,09,03,17,14,22.40
2011,09,03,17,15,22.40
2011,09,03,17,16,22.40
2011,09,03,17,17,22.40
2011,09,03,17,18,22.50
2011,09,03,17,19,22.50
2011,09,03,17,20,22.50
2011,09,03,17,21,22.60
2011,09,03,17,22,22.60
2011,09,03,17,23,22.60
2011,09,03,17,24,22.70
2011,09,03,17,25,22.70
2011,09,03,17,26,22.80
2011,09,03,17,27,22.80
2011,09,03,17,28,22.80
2011,09,03,17,29,22.90
2011,09,03,17,30,22.90
2011,09,03,17,31,22.90
2011,09,03,17,32,22.90